www.pogodaiklimat.ru

Погода и климат >> Архив погоды >> Индонезия >> Голеа


ПОГОДА в Голеа

  • Прогноз погоды в Голеа
  • Монитор погоды в Голеа

АРХИВ ПОГОДЫ в Голеа

Время (UTC), дата Ветер
(напр.,м/с)
 
Видим.   Явления Облачность Т
(С)
Тd
(С)
f
(%)
Тe
(С)
Тes
(С)
Комфортность P
(гПа)
Po
(гПа)
Тmin
(С)
Tmax
(С)
R
(мм)
R24
(мм)
S
(см)
15 11.04 ЮЗ 1 10 км 5/3 540 м
[Cu med, cong Ac trans Ci fib]
+25.6 +24.9 96 +36 +36 очень
душно
1010.4 1006.3
18 11.04 штиль 0 10 км 5/3 540 м
[Cu med, cong Ac trans Ci fib]
+24.2 +23.8 98 +33 +33 очень
душно
1009.0 1004.9
21 11.04 штиль 0 10 км 4/1 540 м
[Cu hum Ac trans Ci fib]
+23.4 +23.0 98 +33 +33 очень
душно
1008.8 1004.7
00 12.04 штиль 0 10 км 4/3 500 м
[Cu hum Ac trans Ci fib]
+28.8 +25.2 81 +42 +49 опасность
перегрева
1011.0 1006.9 +23.2
03 12.04 СВ 2 10 км 4/3 540 м
[Cu med, cong Ac trans Ci fib]
+31.7 +22.8 59 +41 +55 опасность
перегрева
1010.2 1006.1
06 12.04 В 3 10 км 5/4 540 м
[Cu med, cong Ac trans Ci fib]
+31.8 +24.4 65 +44 +50 опасность
перегрева
1007.8 1003.7
09 12.04 штиль 0 10 км 6/4 540 м
[Cu med, cong Ac trans Ci fib]
+29.6 +25.3 78 +43 +43 опасность
перегрева
1008.7 1004.6
12 12.04 штиль 0 10 км зарница 6/5 500 м
[Cb cap Ac trans Ci fib]
+26.6 +25.4 93 +39 +39 очень
душно
1010.3 1006.2 +33.1
15 12.04 штиль 0 6000 м в посл. час дождь 9/5 500 м
[Cb cap Ac trans Ci sp]
+24.1 +23.9 99 +33 +33 очень
душно
1011.4 1007.3 14
18 12.04 штиль 0 6000 м слаб. дождь 10/5 500 м
[Cb cap Ac As Ci sp]
+24.5 +24.4 99 +34 +34 очень
душно
1010.2 1006.1 2
21 12.04 штиль 0 10 км {дождь} 8/4 540 м
[Cu med, cong Ac trans Ci fib]
+24.1 +23.9 99 +33 +33 очень
душно
1010.4 1006.3 0.0
00 13.04 штиль 0 10 км {дождь} 9/4 540 м
[Cu med, cong Ac trans Ci sp]
+25.6 +24.9 96 +36 +40 очень
душно
1011.9 1007.8 +24.0 16
03 13.04 Ю 3 10 км 9/5 540 м
[Cu Sc Ac trans Ci sp]
+29.2 +24.9 78 +42 +48 опасность
перегрева
1010.7 1006.6
06 13.04 ЮЗ 2 10 км {дождь} 9/5 540 м
[Cu Sc Ac trans Ci sp]
+28.0 +25.1 84 +40 +45 очень
душно
1008.8 1004.7 3
09 13.04 штиль 0 10 км 9/4 540 м
[Cu med, cong Ac trans Ci sp]
+29.0 +24.7 78 +41 +42 опасность
перегрева
1009.6 1005.5
12 13.04 штиль 0 10 км 5/3 540 м
[Cu med, cong Ac trans Ci fib]
+24.6 +23.3 92 +33 +33 очень
душно
1011.1 1007.0 +30.0
15 13.04 штиль 0 10 км 8/3 540 м
[Cu med, cong Ac trans Ci fib]
+23.0 +22.6 98 +32 +32 очень
душно
1010.8 1006.7
18 13.04 штиль 0 10 км 9/3 540 м
[Cu med, cong Ac trans Ci sp]
+22.8 +22.4 98 +31 +31 очень
душно
1009.6 1005.5
21 13.04 штиль 0 10 км 8/1 540 м
[Cu med, cong Ac trans Ci fib]
+22.9 +22.7 99 +31 +31 очень
душно
1010.6 1006.5
00 14.04 С 1 10 км 6/3 540 м
[Cu hum Ac trans Ci fib]
+28.4 +24.0 77 +39 +45 очень
душно
1011.7 1007.6 +22.2 3
03 14.04 СВ 1 10 км 6/4 540 м
[Cu med, cong Ac trans Ci fib]
+32.0 +25.1 67 +46 +58 опасность
перегрева
1010.6 1006.5
06 14.04 ЮВ 2 10 км 6/5 540 м
[Cu med, cong Ac trans Ci fib]
+31.0 +25.3 72 +45 +52 опасность
перегрева
1008.0 1003.9
09 14.04 штиль 0 10 км 6/4 540 м
[Cu med, cong Ac trans Ci fib]
+28.7 +24.9 80 +41 +41 опасность
перегрева
1008.9 1004.8
12 14.04 З 1 10 км 5/3 540 м
[Cu med, cong Ac trans Ci fib]
+25.6 +24.6 94 +36 +36 очень
душно
1010.9 1006.8 +33.0
15 14.04 штиль 0 10 км 5/3 540 м
[Cu med, cong Ac trans Ci fib]
+24.6 +23.9 96 +34 +34 очень
душно
1010.8 1006.7
18 14.04 штиль 0 10 км 5/3 540 м
[Cu med, cong Ac trans Ci fib]
+23.4 +23.0 98 +33 +33 очень
душно
1009.0 1004.9
21 14.04 штиль 0 10 км 4/1 540 м
[Cu hum Ci fib]
+22.8 +22.4 98 +31 +31 очень
душно
1009.5 1005.4
00 15.04 штиль 0 10 км 3/1 540 м
[Cu hum Ci fib]
+28.0 +24.0 79 +39 +48 очень
душно
1011.3 1007.2 +22.6
03 15.04 штиль 0 10 км 6/4 540 м
[Cu med, cong Ac trans Ci fib]
+31.6 +25.1 69 +46 +60 опасность
перегрева
1010.3 1006.2
06 15.04 СЗ 3 10 км 5/3 540 м
[Cu med, cong Ac trans Ci fib]
+32.2 +23.2 59 +43 +50 опасность
перегрева
1008.5 1004.4
09 15.04 З 2 10 км 8/3 540 м
[Cu med, cong Ac trans Ci fib]
+30.7 +24.2 68 +43 +43 опасность
перегрева
1009.4 1005.3
12 15.04 ЮЗ 1 10 км 9/3 540 м
[Cu med, cong Ac trans Ci fib]
+26.3 +24.1 88 +37 +37 очень
душно
1011.2 1007.1 +32.8
15 15.04 штиль 0 10 км 5/3 540 м
[Cu med, cong Ac trans Ci fib]
+23.3 +22.6 96 +32 +32 очень
душно
1011.7 1007.6
18 15.04 штиль 0 10 км 5/3 540 м
[Cu med, cong Ac trans Ci fib]
+21.9 +21.5 98 +28 +28 душно 1010.0 1005.9
21 15.04 ЮЗ 2 10 км 9/4 570 м
[Cu med, cong Ac trans Ci fib]
+21.0 +20.6 98 +27 +27 душно 1010.0 1005.9
00 16.04 штиль 0 10 км 3/1 500 м
[Cu hum Ci fib]
+27.3 +22.8 76 +36 +46 очень
душно
1011.6 1007.5 +20.8
03 16.04 штиль 0 10 км 6/5 540 м
[Cu med, cong Ac trans Ci fib]
+31.8 +24.2 64 +44 +57 опасность
перегрева
1010.5 1006.4
06 16.04 штиль 0 10 км 6/5 540 м
[Cu med, cong Ac trans Ci fib]
+30.5 +25.2 73 +44 +52 опасность
перегрева
1004.2
09 16.04 штиль 0 10 км 9/5 540 м
[Cu med, cong Ac trans Ci fib]
+29.0 +26.1 84 +44 +44 опасность
перегрева
1009.3 1005.2
12 16.04 штиль 0 10 км {дождь} 5/4 540 м
[Cu med, cong Ac trans Ci fib]
+25.5 +25.0 97 +36 +36 очень
душно
1011.1 1007.0 +32.5 2
15 16.04 ЮЗ 1 10 км 9/6 540 м
[Cu med, cong Ac trans Ci fib]
+24.8 +24.4 98 +35 +35 очень
душно
1011.6 1007.5
18 16.04 штиль 0 10 км 4/3 540 м
[Cu hum Ac trans Ci fib]
+23.6 +23.4 99 +32 +32 очень
душно
1009.3 1005.2
21 16.04 штиль 0 10 км 4/3 540 м
[Cu hum Ac trans Ci fib]
+22.8 +22.6 99 +31 +31 очень
душно
1009.3 1005.2
00 17.04 штиль 0 10 км 4/1 540 м
[Cu med, cong Ac trans Ci fib]
+26.8 +24.4 87 +38 +46 очень
душно
1011.5 1007.4 +22.5 2
03 17.04 З 1 10 км 6/5 540 м
[Cu med, cong Ac trans Ci fib]
+32.3 +24.5 64 +45 +56 опасность
перегрева
1010.7 1006.6
06 17.04 Ю 1 10 км 6/4 540 м
[Cu med, cong Ac trans Ci fib]
+30.0 +24.8 74 +43 +51 опасность
перегрева
1008.8 1004.7
09 17.04 З 1 10 км 5/3 540 м
[Cu med, cong Ac trans Ci fib]
+30.4 +25.6 76 +45 +45 опасность
перегрева
1009.1 1005.0
12 17.04 штиль 0 10 км 4/3 540 м
[Cu med, cong Ac trans Ci fib]
+25.6 +24.4 93 +36 +36 очень
душно
1010.9 1006.8 +32.8
15 17.04 штиль 0 10 км 3/1 570 м
[Cu med, cong Ac trans Ci fib]
+23.8 +22.8 94 +31 +31 очень
душно
1011.2 1007.1
18 17.04 штиль 0 10 км 3/1 570 м
[Cu hum Ac trans Ci fib]
+22.6 +22.2 98 +30 +30 очень
душно
1009.6 1005.5
21 17.04 штиль 0 10 км 3/1 570 м
[Cu hum Ac trans Ci fib]
+22.0 +21.6 98 +29 +29 очень
душно
1010.3 1006.2
00 18.04 штиль 0 10 км 1/1 570 м
[Cu hum Ci fib]
+27.3 +23.8 81 +37 +47 очень
душно
1012.1 1008.0 +21.8
03 18.04 СВ 2 10 км н/о +30.8 +26.6 78 +47 +59 опасность
перегрева
1011.0 1006.9
06 18.04 штиль 0 10 км 8/5 570 м
[Cu med, cong Ac trans Ci fib]
+30.4 +25.3 74 +44 +51 опасность
перегрева
1008.7 1004.6
09 18.04 штиль 0 10 км 1/1 540 м
[Cu hum Ci fib]
+31.0 +24.3 68 +43 +44 опасность
перегрева
1009.1 1005.0
12 18.04 штиль 0 10 км 1/1 540 м
[Cu hum Ci fib]
+25.5 +24.3 93 +35 +35 очень
душно
1011.1 1007.0 +33.2

 

Местоположение метеостанции Голеа (Индонезия): широта 1.82 долгота 127.83 высота над уровнем моря 8 м.

В архиве по умолчанию представлена погода в Голеа за последнюю неделю. Архивные данные за месяц целиком и за предыдущие месяцы, начиная с января 2011 года, Вы можете получить, выбрав интересующий диапазон дат из раскрывающегося списка и нажав кнопку "Ввод!".


*Определитесь, кто Вы:
робот инопланетянин человек

Внимание! Время в таблицах - всемирное. Для получения местного времени необходимо прибавить поправку, которая равна 8 ч.

Смотрите также архив погоды в соседних городах и на ближайших метеорологических станциях:

Погода в Тернате (Индонезия) (128 км)
Погода в Лабухе (Индонезия) (275 км)
Погода в Битунге (Индонезия) (298 км)
Погода в Менадо (Индонезия) (326 км)
Погода в Аэропорту Соронг-Джефман (Индонезия) (476 км)
Погода на Санане (Индонезия) (479 км)
Погода в Горонтало (Индонезия) (550 км)
Погода в Генерал-Сантосе (Филиппины) (561 км)
Погода в Намлеа (Индонезия) (570 км)
Погода в Амахаи (Индонезия) (587 км)

Пояснения к столбцам:

Ветер - указаны скорость ветра в м/с - средняя за 10 мин, порывы в срок и между сроками (в фигурных скобках) и направление, откуда дует ветер: С - северный, СВ - северо-восточный, В - восточный, ЮВ - юго-восточный, Ю - южный, ЮЗ - юго-западный, З - западный, СЗ - северо-западный.
Видимость - горизонтальная дальность видимости в метрах или километрах. При видимости от 1 до 10 км при отсутствии осадков обычно наблюдается дымка, при ухудшении видимости до 1 км и менее - туман. В сухую погоду видимость может ухудшаться дымом, пылью или мглою.
Явления - указаны атмосферные явления, наблюдавшиеся в срок или в последний час перед сроком; фигурными скобками обозначены явления, наблюдавшиеся между сроками (за 1-3 часа до срока); квадратными скобками обозначены град или гололедные отложения с указанием их диаметра в мм.
Облачность - указаны через наклонную черту общая и нижняя облачность в баллах и высота нижней границы облаков в метрах; квадратными скобками обозначены формы облаков: Ci - перистые, Cs - перисто-слоистые, Cc - перисто-кучевые, Ac - высококучевые, As - высокослоистые, Sc - слоисто-кучевые, Ns - слоисто-дождевые, Cu - кучевые, Cb - кучево-дождевые. Подробнее классификацию облаков см. в Атласе облаков (PDF).
T - Температура воздуха - температура, измеренная на высоте 2 м над землей.
Td - Температура точки росы - температура, при понижении до которой содержащийся в воздухе водяной пар достигнет насыщения.
f - Относительная влажность воздуха - влажноcть воздуха, измеренная на высоте 2 м над землей.
Te - Эффективная температура - температура, которую ощущает одетый по сезону человек в тени. Характеристика душности погоды. При расчете учитывается влияние влажности воздуха и скорости ветра на теплоощущения человека.
Tes - Эффективная температура на солнце - температура, которую ощущает человек, с поправкой на солнечный нагрев. Характеристика знойности погоды. Зависит от высоты солнца над горизонтом, облачности и скорости ветра. Ночью, в пасмурную погоду, а также при ветре 12 м/с и более поправка равна нулю.
P - Атмосферное давление - приведенное к уровню моря атмосферное давление.
Po - Атмосферное давление - измеренное на уровне метеостанции атмосферное давление.
Tmin - Минимальная температура - минимум температуры воздуха на высоте 2 м над землей.
Tmax - Максимальная температура - максимум температуры воздуха на высоте 2 м над землей.
R - Количество осадков - Количество выпавших осадков за период времени, мм. При наведении курсора мыши на число - период времени, за который выпало указанное количество осадков.
R24 - Количество осадков - Количество выпавших осадков за 24 часа, мм.
S - Снежный покров - Высота снежного покрова, см. При наведении курсора мыши на число - состояние снежного покрова и степень покрытия местности в баллах.